Lexington Weather

Lexington, Massachusetts, USA

24°F
2/26/2021 7:02am 
  • Lexington Conditions: Clear
  • Temperature: 24.4°F / -4.2°CColder 1.5°F than last hour.
  • Dew Point: 14.7°FDecreased 1.1°Fsince last hour.
  • Relative Humidity: 66%Increased 1.0% since last hour.
  • Wind: Calm, 10-min avg: Calm, gust: None
  • Barometer: 30.33 inRising 0.04  inHg/hr Rising Slowly
  • Visibility: 10 miles
  • Snow Today: 0.0 in
  •   

Regional Weather Roundup
for Boston / Norton, MA

        
000
ASUS41 KBOX 240304
RWRBOX

REGIONAL WEATHER ROUNDUP
NATIONAL WEATHER SERVICE BOSTON/NORTON MA
1000 PM EST TUE FEB 23 2021

NOTE:  "FAIR" INDICATES FEW OR NO CLOUDS BELOW 12,000 FEET WITH NO 
SIGNIFICANT WEATHER AND/OR OBSTRUCTIONS TO VISIBILITY.

MAZALL-240400-
EASTERN MASSACHUSETTS
  
CITY           SKY/WX    TMP DP  RH WIND       PRES   REMARKS
BOSTON         PTCLDY    37  30  75 W15       29.65R WCI  28          
BEVERLY        CLEAR     37  30  75 W8        29.63R WCI  31          
LAWRENCE       CLEAR     36  31  82 W8        29.65R WCI  30          
BEDFORD        PTCLDY    35  30  82 W6        29.64R WCI  30          
BLUE HILL        N/A     34  32  92 W17       29.61R WCI  23          
NORWOOD        PTCLDY    37  30  75 W8        29.65R WCI  31          
MARSHFIELD     CLEAR     37  34  87 VRB7      29.65R                  
PLYMOUTH       CLEAR     34  31  88 W9        29.64R WCI  27          
TAUNTON        CLEAR     36  31  82 W6        29.66R WCI  31          
NEW BEDFORD    CLEAR     38  32  79 W12       29.67R WCI  30          
$$

MAZALL-240400-
CAPE COD AND THE ISLANDS
  
CITY           SKY/WX    TMP DP  RH WIND       PRES   REMARKS
FALMOUTH       CLEAR     36  32  87 W13       29.65R WCI  27          
HYANNIS        CLEAR     37  32  82 W10       29.63R WCI  30          
CHATHAM        CLEAR     37  31  78 VRB6      29.65R                  
PROVINCETOWN   CLOUDY    38  34  85 W14       29.65R WCI  30          
NANTUCKET      CLEAR     37  34  89 W16       29.66R WCI  28          
MARTHAS VNYRD  CLEAR     37  34  89 W10G18    29.67R WCI  30          
$$
 
MAZALL-240400-
CENTRAL AND WESTERN MASSACHUSETTS
  
CITY           SKY/WX    TMP DP  RH WIND       PRES   REMARKS
WORCESTER      CLOUDY    36  29  75 W13       29.65R WCI  27          
FITCHBURG      MOCLDY    37  32  82 W7        29.66R WCI  32          
ORANGE         CLOUDY    38  29  70 W13G21    29.68R WCI  30          
SPRINGFIELD    CLOUDY    40  29  67 NW13G22   29.70R                  
WESTFIELD      CLOUDY    41  30  65 NW9       29.71R                  
NORTH ADAMS    CLOUDY    38  30  73 W15G36    29.71R WCI  29          
PITTSFIELD     CLOUDY    36  30  79 W20G41    29.70R WCI  25          
$$
 
RIZALL-240400-
RHODE ISLAND
  
CITY           SKY/WX    TMP DP  RH WIND       PRES   REMARKS
PROVIDENCE     PTCLDY    38  32  79 W12       29.69R WCI  30          
NEWPORT        CLEAR     37  32  82 W8        29.68R WCI  31          
BLOCK ISLAND   CLOUDY    39  33  79 W14G21    29.73R WCI  31          
SMITHFIELD     MOCLDY    36  33  89 W13       29.67R WCI  27          
WESTERLY       CLOUDY    37  32  82 W6        29.71R                  
$$
 
CTZALL-240400-
CONNECTICUT
  
CITY           SKY/WX    TMP DP  RH WIND       PRES   REMARKS
BRADLEY INTL   CLOUDY    39  30  70 W10       29.72R                  
HARTFORD       CLOUDY    41  31  67 W6        29.74R                  
BRIDGEPORT     CLEAR     42  31  64 W16G26    29.77R                  
DANBURY        CLOUDY    42  30  62 W10G20    29.78R                  
GROTON         CLOUDY    40  33  76 W9        29.73R                  
NEW HAVEN      PTCLDY    42  32  67 CALM      29.76R                  
CHESTER        MOCLDY    39  32  75 W7G14     29.74R                  
MERIDEN        CLOUDY    41  31  67 W5        29.76R                  
WILLIMANTIC    CLOUDY    39  31  72 W5        29.71R                  
OXFORD         PTCLDY    38  32  79 W10       29.74R WCI  31          
$$

MEZ002-015-021-024-NHZ003-005-008-011-012-014-VTZ005-008-240400-
NORTHERN NEW ENGLAND
  
CITY           SKY/WX    TMP DP  RH WIND       PRES   REMARKS
PORTLAND ME    PTCLDY    34  29  82 W8        29.59R WCI  27          
BANGOR ME      CLOUDY    32  31  96 SW3       29.56S                  
CONCORD NH     MOCLDY    29  27  92 NW3       29.62R FOG              
MANCHESTER NH  MOCLDY    36  29  75 SW5       29.62R                  
NASHUA NH      PTCLDY    32  32 100 CALM      29.65R                  
PORTSMOUTH NH  PTCLDY    35  30  83 W8        29.61R WCI  28          
JAFFREY NH     CLOUDY    34  30  85 SW5       29.63R WCI  30          
KEENE NH       CLOUDY    32  31  96 S5        29.67R WCI  27          
BURLINGTON VT  FLURRIES  34  31  88 S5        29.66R WCI  30          
MT. WASHINGTON SNOW      14  14 100 W55G68      N/A  VSB 0   WCI -12  
$$

NYZ052-076-240400-
EASTERN NEW YORK
  
CITY           SKY/WX    TMP DP  RH WIND       PRES   REMARKS
ALBANY         CLOUDY    37  31  78 W15G26    29.75R WCI  28          
NEW YORK CITY  MOCLDY    46  29  51 W14       29.81R                  
$$
 
ANZALL-240400-
MARINE OBSERVATIONS
  
STATION/POSITION TIME  TEMP    WIND        PRES    VSBY  WAVE
                       AIR SEA DIR/SP/G                  HT/PER
                 (UTC) (F)     (DEG/KT/KT) (MB)    (MI)  (FT/S)
BOSTON BUOY      0240   38 39  250/ 14/ 17 1003.7R
BUZZARDS BAY     0200          260/ 23/ 24 1005.0R
NANTUCKET SOUND  0240      36  260/ 16/ 21   N/A
MASS BAY-STELLWA 0204   39     260/ 14/ 16 1001.0R  1 7/8  3/11
ISLE OF SHOALS   0200   38     260/ 11/ 13 1001.5R
S OF BLOCK IS    0226      38                N/A           8/10
$$

......................KEY.........................
  SKY/WX - SKY CONDITION/PRESENT WEATHER
  TMP    - TEMPERATURE IN FAHRENHEIT
  DWPT   - DEWPOINT IN FAHRENHEIT
  RH     - RELATIVE HUMIDITY IN PERCENT
  WIND   - DIRECTION AND SPEED IN MPH
  PRES   - MEAN SEA LEVEL PRESSURE IN INCHES OF HG
  WCI    - WIND CHILL INDEX
  VSB    - VISIBILITY IN MILES
  HX     - HEAT INDEX
  TC     - TEMPERATURE IN CELSIUS
  VRB    - VARIABLE WIND DIRECTION
  N/A    - NOT AVAILABLE
  
      

Other recent Regional Weather Roundups

Fri Feb 26, 6:04am

Fri Feb 26, 5:04am

Fri Feb 26, 4:04am

Fri Feb 26, 3:04am

Fri Feb 26, 2:04am

Fri Feb 26, 1:04am

Fri Feb 26, 12:04am

Thu Feb 25, 11:04pm

Thu Feb 25, 10:04pm

Thu Feb 25, 9:04pm

Thu Feb 25, 8:05pm

Thu Feb 25, 7:05pm

Thu Feb 25, 6:04pm

Thu Feb 25, 5:04pm

Thu Feb 25, 4:05pm

Thu Feb 25, 3:05pm

Thu Feb 25, 2:04pm

Thu Feb 25, 1:04pm

Thu Feb 25, 12:05pm

Thu Feb 25, 11:04am

Thu Feb 25, 10:04am

Thu Feb 25, 9:04am

Thu Feb 25, 8:04am

Thu Feb 25, 7:04am

Thu Feb 25, 6:04am

Thu Feb 25, 5:04am

Thu Feb 25, 4:04am

Thu Feb 25, 3:04am

Thu Feb 25, 2:04am

Thu Feb 25, 1:04am

Thu Feb 25, 12:04am

Wed Feb 24, 11:04pm

Wed Feb 24, 10:05pm

Wed Feb 24, 9:04pm

Wed Feb 24, 8:04pm

Wed Feb 24, 7:04pm

Wed Feb 24, 6:04pm

Wed Feb 24, 5:04pm

Wed Feb 24, 4:04pm

Wed Feb 24, 3:04pm

Wed Feb 24, 2:05pm

Wed Feb 24, 1:05pm

Wed Feb 24, 12:05pm

Wed Feb 24, 11:04am

Wed Feb 24, 10:04am

Wed Feb 24, 9:04am

Wed Feb 24, 8:04am

Wed Feb 24, 7:04am

Wed Feb 24, 6:04am

Wed Feb 24, 5:04am

Wed Feb 24, 4:04am

Wed Feb 24, 3:04am

Wed Feb 24, 2:04am

Wed Feb 24, 1:04am

Wed Feb 24, 12:04am

Tue Feb 23, 11:04pm

Tue Feb 23, 9:04pm

Tue Feb 23, 8:05pm

Tue Feb 23, 7:04pm

Tue Feb 23, 6:04pm

Tue Feb 23, 5:04pm

Tue Feb 23, 4:05pm

Tue Feb 23, 3:04pm

Tue Feb 23, 2:04pm

Tue Feb 23, 1:04pm

Tue Feb 23, 12:04pm

Tue Feb 23, 11:04am

Tue Feb 23, 10:04am

Tue Feb 23, 9:04am

Tue Feb 23, 7:04am

Tue Feb 23, 6:04am

Tue Feb 23, 5:04am

Tue Feb 23, 4:04am

Tue Feb 23, 3:04am

Tue Feb 23, 2:04am

Tue Feb 23, 1:04am

Tue Feb 23, 12:04am

Mon Feb 22, 11:04pm

Mon Feb 22, 10:04pm

Mon Feb 22, 9:04pm

Mon Feb 22, 8:04pm

Mon Feb 22, 7:04pm

Mon Feb 22, 6:04pm

Mon Feb 22, 5:04pm

Mon Feb 22, 4:05pm

Mon Feb 22, 3:04pm

Mon Feb 22, 2:05pm

Mon Feb 22, 1:04pm

Mon Feb 22, 12:05pm

Mon Feb 22, 11:04am

Mon Feb 22, 10:04am

Mon Feb 22, 9:05am

Mon Feb 22, 8:04am

Mon Feb 22, 7:04am

Mon Feb 22, 6:04am

Mon Feb 22, 5:04am

Mon Feb 22, 4:04am

Mon Feb 22, 3:04am

Mon Feb 22, 2:04am

Mon Feb 22, 1:04am

Mon Feb 22, 12:04am

Sun Feb 21, 11:04pm

Sun Feb 21, 10:05pm

Sun Feb 21, 9:04pm

Sun Feb 21, 8:04pm

Sun Feb 21, 7:04pm

Sun Feb 21, 6:04pm

Sun Feb 21, 5:04pm

Sun Feb 21, 4:05pm

Sun Feb 21, 3:04pm

Sun Feb 21, 2:04pm

Sun Feb 21, 1:05pm

Sun Feb 21, 12:05pm

Sun Feb 21, 11:04am

Sun Feb 21, 10:05am

Sun Feb 21, 9:04am

Sun Feb 21, 8:04am

Sun Feb 21, 7:04am

Sun Feb 21, 6:04am

Sun Feb 21, 5:04am

Sun Feb 21, 4:04am

Sun Feb 21, 3:04am

Sun Feb 21, 2:04am

Sun Feb 21, 1:04am

Sun Feb 21, 12:04am

Sat Feb 20, 11:04pm

Sat Feb 20, 10:04pm

Sat Feb 20, 9:04pm

Sat Feb 20, 8:04pm

Sat Feb 20, 7:04pm

Sat Feb 20, 6:04pm

Sat Feb 20, 5:04pm

Sat Feb 20, 4:05pm

Sat Feb 20, 3:04pm

Sat Feb 20, 2:04pm

Sat Feb 20, 1:05pm

Sat Feb 20, 12:05pm

Sat Feb 20, 11:04am

Sat Feb 20, 10:05am

Sat Feb 20, 9:04am

Sat Feb 20, 8:04am

Sat Feb 20, 7:04am

Sat Feb 20, 6:04am

Sat Feb 20, 5:04am

Sat Feb 20, 4:04am

Sat Feb 20, 3:04am

Sat Feb 20, 2:04am

Sat Feb 20, 1:04am

Sat Feb 20, 12:04am

Fri Feb 19, 11:04pm

Fri Feb 19, 10:05pm

Fri Feb 19, 9:04pm

Fri Feb 19, 8:04pm

Fri Feb 19, 7:04pm

Fri Feb 19, 6:04pm

Fri Feb 19, 5:04pm

Fri Feb 19, 4:05pm

Fri Feb 19, 3:04pm

Fri Feb 19, 2:04pm

Fri Feb 19, 1:05pm

Fri Feb 19, 12:05pm

Fri Feb 19, 11:04am

Fri Feb 19, 10:04am

Fri Feb 19, 9:04am

Fri Feb 19, 8:04am

Fri Feb 19, 7:04am

Meta data:

ID: 433569b4-ae05-4dca-bc99-bdb83d321a6b
Link: https://api.weather.gov/products/433569b4-ae05-4dca-bc99-bdb83d321a6b